Overview Statistics Trail Chart Weather Telemetry Raw packets
 

This is the latest recevied weather packets stored in our database for station/object W0WC. If no packets are shown the sender has not sent any weather packets the latest 10 day(s).

<< 111 112 113 114 >>
Time Temp. Humidity Pressure Rain* Wind** Luminosity Snow
1787842712 28.89° C 51% 1019.9 hPa 0 mm - 403 W/m² -
1787842407 28.89° C 52% 1019.8 hPa 0 mm - 394 W/m² -
1787842107 28.33° C 54% 1020 hPa 0 mm - 405 W/m² -
1787841802 28.33° C 54% 1019.9 hPa 0 mm - 280 W/m² -
1787841502 28.33° C 55% 1019.7 hPa 0 mm - 394 W/m² -
1787841197 28.33° C 55% 1019.7 hPa 0 mm - 342 W/m² -
1787840892 28.33° C 55% 1019.6 hPa 0 mm - 207 W/m² -
1787840587 28.33° C 57% 1019.6 hPa 0 mm - 263 W/m² -
1787840282 27.78° C 57% 1019.4 hPa 0 mm - 287 W/m² -
1787839981 27.78° C 59% 1019.4 hPa 0 mm - 276 W/m² -
1787839677 27.22° C 60% 1019.5 hPa 0 mm - 261 W/m² -
1787839378 27.22° C 60% 1019.5 hPa 0 mm - 136 W/m² -
1787839077 26.67° C 61% 1019.3 hPa 0 mm - 250 W/m² -
1787838776 26.67° C 61% 1019.4 hPa 0 mm - 227 W/m² -
1787838477 26.67° C 63% 1019.5 hPa 0 mm - 201 W/m² -
1787838170 26.11° C 64% 1019.5 hPa 0 mm - 189 W/m² -
1787837864 26.11° C 65% 1019.5 hPa 0 mm - 172 W/m² -
1787837559 25.56° C 66% 1019.3 hPa 0 mm - 156 W/m² -
1787837258 25.56° C 67% 1019.3 hPa 0 mm - 152 W/m² -
1787836958 24.44° C 71% 1019.3 hPa 0 mm - 151 W/m² -
1787836654 24.44° C 72% 1019 hPa 0 mm - 143 W/m² -
1787836353 23.89° C 74% 1019.2 hPa 0 mm - 126 W/m² -

* Rain latest hour (hover to see other rain measurements)
** Current wind speed in m/s (hover to see current wind gust speed)